{"data":{"norad_id":61227,"intl_designator":"2024-173A","name":"2024-173A","alt_names":[],"object_type":"PAYLOAD","status":"ACTIVE","operator":null,"country":"PRC","launch_date":"2024-09-24","launch_site_code":"YSLA","launch_vehicle":null,"mission":null,"orbit_class":"UNKNOWN","rcs_meters":null,"size_class":null,"mass_kg":null,"dimensions":null,"purposes":[],"wikipedia_slug":null,"has_3d_model":false,"image_url":null,"decayed_at":null,"tle_current":{"epoch":"2026-08-23T16:46:37.005888Z","epoch_age_seconds":2696702,"freshness":"OLD","line1":"1 61227U 24173A   26235.69903942  .02359095  23945-5  11932-2 0  9994","line2":"2 61227  97.3240 328.4589 0014893 269.2605  90.6978 16.20386278107762","mean_motion":16.20386278,"eccentricity":0.0014893,"inclination_deg":97.324,"raan_deg":328.4589,"arg_perigee_deg":269.2605,"mean_anomaly_deg":90.6978,"bstar":0.0011932,"rev_number":10776,"period_min":88.867698989487,"perigee_km":208.67892140078,"apogee_km":228.32767419179,"semimajor_km":6596.6402977963,"source":"CELESTRAK","updated_at":"2026-08-31T09:00:24.490046Z"}}}